Wind_Speed
18 18 17 17 16 14 13 13 12 13 13 14 16 17 18 19 20 21 22 23 23 23 24 26 27 27 28 29 30 30 29 29 29 29 29 28 27 27
20 19 19 18 18 16 16 15 15 14 14 15 17 18 20 21 21 23 24 25 25 26 26 26 27 28 29 30 31 31 31 31 30 30 30 30 29 29
22 21 21 20 19 19 19 18 18 17 17 17 18 19 20 21 23 24 25 26 27 27 28 28 29 30 30 31 31 32 32 32 32 31 31 31 31 30
24 24 24 23 22 22 21 21 21 21 20 19 20 21 22 22 23 25 26 28 28 29 29 30 30 31 32 32 32 33 33 33 34 34 33 33 33 32
26 25 25 25 24 24 24 24 24 24 23 23 23 24 24 25 25 26 27 28 29 30 30 30 31 32 33 33 33 33 34 35 35 35 35 34 33 34
28 28 27 27 27 27 27 27 27 26 26 26 27 27 27 28 28 28 28 30 31 31 32 32 32 32 33 33 34 34 35 35 35 35 35 35 34 34
30 30 31 30 30 30 30 29 29 29 29 29 30 30 30 30 31 31 31 31 32 33 33 34 34 33 34 35 35 35 36 35 35 35 36 36 36 35
33 33 34 34 33 33 32 32 32 32 32 32 33 33 33 33 33 33 33 34 34 34 34 35 36 36 36 36 36 37 37 37 36 36 36 37 37 37
36 36 36 36 35 34 34 33 33 34 34 34 34 34 35 35 36 36 37 36 35 36 37 36 37 38 38 38 38 38 39 39 38 37 37 38 37 37
37 38 37 37 36 36 35 35 35 34 34 35 35 35 36 37 37 38 39 39 39 39 39 37 37 38 39 38 38 38 39 39 39 39 39 38 37 37
39 39 39 38 38 38 37 37 36 36 36 36 37 36 37 38 38 39 39 40 40 41 41 40 39 39 39 39 39 39 39 40 39 39 40 39 38 37
41 41 41 41 41 40 39 39 38 38 38 38 38 38 38 39 39 39 40 40 41 41 41 42 41 41 41 41 41 40 40 40 40 40 40 39 39 38
42 42 43 43 43 41 41 40 40 40 40 40 39 38 38 39 39 39 40 41 41 42 42 43 42 42 42 42 42 42 41 41 41 41 40 40 39 38
45 45 45 45 44 43 42 42 42 42 40 40 40 38 38 39 39 40 40 41 42 42 43 44 44 42 43 43 43 43 43 43 42 42 41 40 40 39
46 47 47 46 45 44 44 44 43 43 41 40 39 39 38 39 40 41 41 42 42 43 43 45 44 43 43 43 44 43 43 43 43 42 41 41 40 39
48 49 49 47 46 45 45 43 43 43 43 41 40 39 39 40 42 43 43 44 44 43 44 45 45 45 45 44 44 44 44 44 43 43 43 42 41 40
50 50 49 48 47 46 45 44 43 44 44 44 42 41 41 42 44 46 45 45 45 45 45 46 47 46 46 46 46 45 44 44 43 43 44 43 41 40
52 51 50 50 49 48 47 46 46 45 45 45 45 44 43 44 45 46 45 45 45 45 46 47 48 48 48 48 47 46 45 44 44 43 43 43 42 41
54 53 52 51 50 49 48 48 48 47 46 46 46 45 45 45 45 45 45 44 45 45 45 46 46 47 48 48 47 48 47 46 45 44 44 43 42 42
56 55 54 53 52 51 50 49 48 47 47 46 46 46 46 45 45 45 45 44 45 45 45 46 46 47 48 49 49 48 48 47 46 45 44 44 44 43
57 56 55 54 53 52 51 49 48 47 46 46 45 45 45 44 44 45 45 45 45 45 45 45 46 47 48 49 49 49 48 48 48 47 45 45 44 43
58 57 56 55 54 51 50 48 47 45 45 44 43 43 43 42 42 43 44 44 44 45 45 45 46 47 47 48 48 48 48 48 48 47 46 45 44 43
58 57 56 55 53 51 49 47 45 43 43 42 41 41 41 40 40 41 42 42 42 42 43 43 44 45 45 46 46 47 47 48 48 47 46 45 44 43
Wind_Direction
335 333 330 326 323 318 311 303 295 287 277 267 259 255 252 249 247 244 241 240 240 240 238 236 235 234 233 233 232 233 233 232 233 234 234 235 236 238
328 327 324 322 319 314 307 301 295 288 281 273 265 260 258 254 250 247 246 244 243 241 240 238 237 237 237 237 237 236 236 236 236 236 236 238 239 240
323 321 319 316 313 310 305 300 295 290 283 276 270 264 262 258 254 251 249 247 245 243 242 241 240 240 240 239 239 238 237 238 238 240 240 240 240 241
320 317 315 312 309 307 303 297 293 289 284 278 272 268 266 261 258 256 252 249 248 247 245 244 243 242 242 241 241 240 239 240 240 242 243 243 243 241
319 316 312 309 306 303 300 296 292 288 283 279 275 270 268 265 262 260 256 253 251 249 248 247 246 245 244 242 242 242 241 241 241 242 244 245 245 245
316 313 310 308 304 301 297 294 291 287 283 280 276 273 270 268 265 262 259 256 253 251 251 250 249 247 246 244 243 243 243 242 243 243 244 245 246 246
313 312 310 307 304 301 297 292 289 286 283 280 277 274 271 268 266 263 260 257 255 253 251 249 248 247 247 245 244 244 244 244 244 244 244 245 246 246
312 311 310 307 304 300 295 292 288 284 281 279 277 273 270 267 265 263 260 257 256 255 252 250 248 248 247 246 246 245 244 244 245 245 245 245 246 247
310 310 309 307 304 299 295 291 289 285 281 279 276 273 269 267 265 263 260 257 255 254 252 250 249 249 248 247 246 246 245 245 245 245 246 247 247 247
310 309 308 307 304 300 295 292 289 285 281 278 275 272 270 268 266 263 260 258 255 253 252 251 250 250 249 247 247 246 245 245 244 244 245 246 246 246
309 309 307 306 304 299 296 293 290 286 281 280 277 274 271 268 265 263 260 258 255 253 252 250 249 250 250 249 249 248 247 245 244 244 244 245 245 246
309 309 307 305 302 299 296 293 291 288 284 281 278 275 272 268 266 264 261 258 255 253 251 251 249 249 248 248 248 248 248 246 245 245 244 245 245 246
309 309 308 306 303 298 296 294 291 289 286 282 278 275 271 267 266 264 262 259 256 255 252 250 250 250 249 248 248 247 247 246 246 246 245 245 245 246
308 308 307 306 302 298 296 293 291 289 287 283 277 273 270 267 265 264 262 260 258 256 254 252 251 251 249 249 248 247 246 246 245 247 245 245 245 245
306 307 306 305 302 298 296 293 291 289 286 283 278 273 269 266 265 264 262 259 257 256 255 254 252 251 250 248 247 246 246 245 245 245 245 245 244 245
306 306 305 303 300 298 296 293 291 289 286 283 278 274 270 268 266 264 262 259 257 256 254 253 251 251 250 248 246 245 245 244 244 245 245 244 244 245
305 305 304 302 299 297 295 293 291 288 286 282 278 275 271 269 267 264 262 259 256 254 252 251 250 250 249 247 245 244 244 242 242 243 244 244 244 244
305 305 303 302 299 296 293 291 290 287 284 281 278 276 273 270 268 265 261 258 255 253 252 250 250 249 248 246 244 242 242 241 240 241 242 244 244 244
305 304 303 301 299 295 293 291 289 286 282 281 279 277 274 270 267 264 260 257 254 253 252 250 249 248 247 245 243 241 241 240 240 241 241 243 244 244
304 304 303 302 299 296 293 291 289 285 282 280 280 278 274 270 267 263 259 256 254 252 252 250 249 248 246 244 241 239 239 239 239 240 241 242 243 244
304 304 304 302 300 297 294 291 288 285 282 280 280 277 273 270 266 261 258 256 254 252 252 251 249 247 245 241 238 237 238 238 239 240 240 240 241 242
304 303 303 302 300 296 294 291 288 285 281 279 278 274 271 269 266 262 258 256 254 252 251 249 246 245 242 237 236 237 237 238 238 239 238 239 240 241
303 302 302 301 298 296 295 292 288 285 281 278 276 273 270 269 266 263 258 256 254 252 250 248 245 243 240 236 236 237 237 236 237 237 238 238 239 240
Height
5825 5823 5821 5819 5818 5817 5816 5816 5816 5816 5816 5816 5817 5818 5819 5820 5822 5823 5825 5827 5829 5831 5833 5835 5837 5840 5842 5845 5848 5850 5853 5856 5858 5861 5864 5866 5869 5871
5822 5820 5818 5817 5815 5814 5813 5813 5812 5813 5813 5812 5813 5813 5814 5815 5816 5818 5820 5821 5823 5825 5827 5829 5832 5834 5836 5839 5841 5844 5847 5849 5852 5855 5857 5860 5862 5865
5819 5817 5815 5813 5812 5810 5809 5808 5808 5808 5808 5808 5808 5808 5809 5810 5811 5812 5814 5815 5817 5819 5821 5823 5825 5827 5830 5832 5835 5837 5840 5842 5845 5848 5850 5853 5856 5858
5814 5812 5810 5808 5807 5805 5804 5803 5803 5802 5802 5802 5802 5802 5803 5803 5804 5806 5807 5808 5810 5812 5814 5816 5818 5820 5822 5825 5827 5830 5832 5835 5838 5840 5843 5846 5848 5850
5808 5806 5804 5802 5800 5799 5798 5797 5796 5795 5795 5795 5795 5795 5796 5796 5797 5798 5799 5800 5802 5804 5806 5808 5810 5812 5814 5817 5819 5822 5824 5827 5830 5832 5835 5837 5840 5842
5802 5799 5796 5794 5793 5791 5790 5789 5788 5788 5787 5787 5787 5787 5788 5788 5789 5790 5791 5792 5794 5795 5797 5800 5802 5804 5806 5808 5811 5814 5816 5818 5821 5824 5827 5829 5832 5834
5794 5791 5788 5786 5784 5782 5780 5779 5779 5778 5778 5778 5778 5778 5778 5779 5780 5780 5782 5783 5784 5786 5788 5790 5793 5795 5797 5799 5802 5805 5808 5810 5813 5815 5818 5820 5823 5826
5786 5783 5779 5776 5773 5771 5769 5768 5767 5767 5767 5766 5767 5767 5767 5768 5768 5770 5771 5773 5775 5777 5778 5780 5782 5785 5787 5790 5792 5795 5798 5801 5804 5806 5809 5812 5814 5817
5776 5773 5769 5765 5762 5760 5758 5756 5755 5754 5753 5753 5754 5754 5755 5756 5756 5758 5759 5761 5764 5765 5767 5769 5772 5774 5777 5779 5782 5785 5788 5791 5794 5797 5799 5802 5804 5807
5766 5761 5758 5754 5750 5747 5745 5744 5742 5741 5740 5740 5740 5741 5741 5742 5742 5744 5746 5748 5751 5753 5755 5758 5760 5763 5766 5768 5771 5774 5777 5780 5783 5786 5789 5792 5795 5797
5755 5751 5746 5742 5738 5735 5733 5731 5729 5728 5726 5725 5725 5726 5727 5727 5728 5729 5731 5733 5737 5740 5742 5745 5748 5751 5754 5757 5760 5763 5766 5769 5772 5775 5778 5782 5785 5787
5745 5740 5735 5730 5726 5722 5719 5717 5715 5713 5712 5711 5710 5710 5711 5712 5713 5714 5716 5719 5722 5726 5729 5732 5735 5738 5741 5745 5748 5751 5754 5758 5761 5764 5768 5771 5774 5777
5733 5728 5723 5718 5713 5709 5705 5703 5700 5698 5697 5696 5695 5695 5695 5696 5698 5699 5701 5704 5707 5711 5715 5718 5721 5724 5728 5732 5736 5739 5743 5746 5750 5753 5757 5760 5763 5766
5721 5716 5711 5705 5700 5696 5692 5689 5686 5684 5682 5681 5680 5680 5681 5682 5684 5685 5687 5689 5692 5696 5700 5703 5706 5710 5714 5718 5722 5726 5730 5734 5738 5742 5745 5749 5752 5755
5708 5703 5698 5692 5687 5683 5678 5675 5672 5669 5667 5666 5666 5666 5667 5668 5670 5671 5673 5675 5678 5681 5684 5688 5692 5696 5699 5704 5709 5713 5717 5721 5725 5730 5733 5737 5741 5745
5695 5690 5684 5678 5673 5669 5664 5661 5658 5655 5653 5652 5651 5651 5652 5653 5654 5656 5657 5660 5663 5667 5670 5673 5677 5681 5685 5689 5694 5699 5704 5708 5713 5717 5721 5725 5729 5733
5681 5676 5670 5665 5659 5655 5650 5647 5644 5641 5639 5637 5636 5636 5637 5638 5638 5639 5641 5643 5647 5651 5655 5658 5661 5665 5670 5674 5679 5685 5690 5695 5700 5704 5709 5713 5717 5721
5666 5661 5655 5650 5644 5640 5636 5633 5629 5626 5623 5622 5621 5620 5620 5621 5622 5623 5624 5627 5630 5634 5638 5642 5645 5649 5653 5659 5665 5670 5676 5681 5687 5691 5696 5700 5705 5709
5652 5646 5640 5634 5629 5624 5620 5617 5613 5610 5608 5606 5605 5604 5604 5605 5605 5607 5609 5611 5614 5618 5622 5625 5629 5633 5637 5644 5650 5655 5662 5667 5672 5678 5683 5688 5693 5697
5636 5630 5624 5618 5612 5607 5603 5600 5597 5594 5592 5590 5589 5588 5588 5588 5589 5591 5593 5595 5598 5601 5605 5609 5613 5617 5622 5628 5634 5640 5646 5653 5658 5664 5670 5675 5680 5685
5621 5614 5607 5601 5596 5591 5587 5583 5580 5578 5576 5574 5573 5572 5572 5572 5573 5575 5577 5579 5582 5585 5589 5594 5597 5600 5604 5610 5617 5625 5632 5638 5644 5650 5656 5661 5667 5672
5604 5598 5592 5585 5580 5575 5571 5567 5564 5561 5559 5558 5557 5556 5556 5556 5557 5559 5561 5563 5566 5570 5574 5578 5581 5584 5589 5595 5603 5611 5618 5624 5630 5636 5643 5649 5654 5660
5588 5581 5575 5569 5564 5559 5555 5551 5548 5546 5544 5542 5541 5541 5541 5542 5542 5544 5546 5548 5551 5554 5558 5561 5565 5570 5575 5581 5588 5596 5603 5610 5616 5623 5630 5636 5642 5647